Year,Month,Day,Hour,Minute,Value (Times are PST for temperature in C)
2012,07,08,00,00,17.60
2012,07,08,00,01,17.60
2012,07,08,00,02,17.60
2012,07,08,00,03,17.60
2012,07,08,00,04,17.50
2012,07,08,00,05,17.50
2012,07,08,00,06,17.50
2012,07,08,00,07,17.40
2012,07,08,00,08,17.40
2012,07,08,00,09,17.40
2012,07,08,00,10,17.30
2012,07,08,00,11,17.30
2012,07,08,00,12,17.30
2012,07,08,00,13,17.30
2012,07,08,00,14,17.20
2012,07,08,00,15,17.20
2012,07,08,00,16,17.20
2012,07,08,00,17,17.20
2012,07,08,00,18,17.10
2012,07,08,00,19,17.10
2012,07,08,00,20,17.10
2012,07,08,00,21,17.00
2012,07,08,00,22,17.00
2012,07,08,00,23,17.00
2012,07,08,00,24,16.90
2012,07,08,00,25,16.90
2012,07,08,00,26,16.90
2012,07,08,00,27,16.80
2012,07,08,00,28,16.80
2012,07,08,00,29,16.80
2012,07,08,00,30,16.80
2012,07,08,00,31,16.70
2012,07,08,00,32,16.70
2012,07,08,00,33,16.70
2012,07,08,00,34,16.70
2012,07,08,00,35,16.60
2012,07,08,00,36,16.60
2012,07,08,00,37,16.60
2012,07,08,00,38,16.50
2012,07,08,00,39,16.50
2012,07,08,00,40,16.40
2012,07,08,00,41,16.40
2012,07,08,00,42,16.40
2012,07,08,00,43,16.40
2012,07,08,00,44,16.30
2012,07,08,00,45,16.30
2012,07,08,00,46,16.30
2012,07,08,00,47,16.30
2012,07,08,00,48,16.20
2012,07,08,00,49,16.20
2012,07,08,00,50,16.20
2012,07,08,00,51,16.20
2012,07,08,00,52,16.20
2012,07,08,00,53,16.10
2012,07,08,00,54,16.10
2012,07,08,00,55,16.10
2012,07,08,00,56,16.10
2012,07,08,00,57,16.00
2012,07,08,00,58,16.00
2012,07,08,00,59,16.00
2012,07,08,01,00,15.90
2012,07,08,01,01,15.90
2012,07,08,01,02,15.90
2012,07,08,01,03,15.90
2012,07,08,01,04,15.90
2012,07,08,01,05,15.90
2012,07,08,01,06,15.90
2012,07,08,01,07,15.90
2012,07,08,01,08,15.80
2012,07,08,01,09,15.80
2012,07,08,01,10,15.80
2012,07,08,01,11,15.80
2012,07,08,01,12,15.80
2012,07,08,01,13,15.80
2012,07,08,01,14,15.80
2012,07,08,01,15,15.70
2012,07,08,01,16,15.70
2012,07,08,01,17,15.70
2012,07,08,01,18,15.70
2012,07,08,01,19,15.60
2012,07,08,01,20,15.60
2012,07,08,01,21,15.60
2012,07,08,01,22,15.60
2012,07,08,01,23,15.50
2012,07,08,01,24,15.50
2012,07,08,01,25,15.50
2012,07,08,01,26,15.50
2012,07,08,01,27,15.40
2012,07,08,01,28,15.40
2012,07,08,01,29,15.40
2012,07,08,01,30,15.40
2012,07,08,01,31,15.30
2012,07,08,01,32,15.30
2012,07,08,01,33,15.30
2012,07,08,01,34,15.30
2012,07,08,01,35,15.30
2012,07,08,01,36,15.30
2012,07,08,01,37,15.20
2012,07,08,01,38,15.20
2012,07,08,01,39,15.20
2012,07,08,01,40,15.20
2012,07,08,01,41,15.10
2012,07,08,01,42,15.10
2012,07,08,01,43,15.10
2012,07,08,01,44,15.00
2012,07,08,01,45,15.00
2012,07,08,01,46,15.00
2012,07,08,01,47,15.00
2012,07,08,01,48,15.00
2012,07,08,01,49,15.00
2012,07,08,01,50,15.00
2012,07,08,01,51,15.00
2012,07,08,01,52,15.00
2012,07,08,01,53,15.00
2012,07,08,01,54,15.00
2012,07,08,01,55,15.00
2012,07,08,01,56,15.00
2012,07,08,01,57,15.00
2012,07,08,01,58,15.00
2012,07,08,01,59,15.00
2012,07,08,02,00,14.90
2012,07,08,02,01,14.90
2012,07,08,02,02,14.80
2012,07,08,02,03,14.80
2012,07,08,02,04,14.80
2012,07,08,02,05,14.70
2012,07,08,02,06,14.70
2012,07,08,02,07,14.70
2012,07,08,02,08,14.70
2012,07,08,02,09,14.70
2012,07,08,02,10,14.70
2012,07,08,02,11,14.70
2012,07,08,02,12,14.70
2012,07,08,02,13,14.70
2012,07,08,02,14,14.60
2012,07,08,02,15,14.60
2012,07,08,02,16,14.60
2012,07,08,02,17,14.60
2012,07,08,02,18,14.60
2012,07,08,02,19,14.60
2012,07,08,02,20,14.60
2012,07,08,02,21,14.60
2012,07,08,02,22,14.60
2012,07,08,02,23,14.50
2012,07,08,02,24,14.50
2012,07,08,02,25,14.50
2012,07,08,02,26,14.50
2012,07,08,02,27,14.50
2012,07,08,02,28,14.50
2012,07,08,02,29,14.50
2012,07,08,02,30,14.60
2012,07,08,02,31,14.60
2012,07,08,02,32,14.60
2012,07,08,02,33,14.50
2012,07,08,02,34,14.50
2012,07,08,02,35,14.50
2012,07,08,02,36,14.50
2012,07,08,02,37,14.50
2012,07,08,02,38,14.50
2012,07,08,02,39,14.40
2012,07,08,02,40,14.40
2012,07,08,02,41,14.40
2012,07,08,02,42,14.40
2012,07,08,02,43,14.40
2012,07,08,02,44,14.40
2012,07,08,02,45,14.40
2012,07,08,02,46,14.40
2012,07,08,02,47,14.40
2012,07,08,02,48,14.40
2012,07,08,02,49,14.40
2012,07,08,02,50,14.40
2012,07,08,02,51,14.30
2012,07,08,02,52,14.30
2012,07,08,02,53,14.30
2012,07,08,02,54,14.30
2012,07,08,02,55,14.30
2012,07,08,02,56,14.30
2012,07,08,02,57,14.30
2012,07,08,02,58,14.30
2012,07,08,02,59,14.30
2012,07,08,03,00,14.20
2012,07,08,03,01,14.20
2012,07,08,03,02,14.20
2012,07,08,03,03,14.20
2012,07,08,03,04,14.20
2012,07,08,03,05,14.20
2012,07,08,03,06,14.20
2012,07,08,03,07,14.20
2012,07,08,03,08,14.20
2012,07,08,03,09,14.20
2012,07,08,03,10,14.20
2012,07,08,03,11,14.20
2012,07,08,03,12,14.20
2012,07,08,03,13,14.20
2012,07,08,03,14,14.20
2012,07,08,03,15,14.20
2012,07,08,03,16,14.10
2012,07,08,03,17,14.10
2012,07,08,03,18,14.10
2012,07,08,03,19,14.10
2012,07,08,03,20,14.10
2012,07,08,03,21,14.10
2012,07,08,03,22,14.10
2012,07,08,03,23,14.10
2012,07,08,03,24,14.10
2012,07,08,03,25,14.10
2012,07,08,03,26,14.10
2012,07,08,03,27,14.10
2012,07,08,03,28,14.00
2012,07,08,03,29,14.00
2012,07,08,03,30,14.00
2012,07,08,03,31,14.00
2012,07,08,03,32,13.90
2012,07,08,03,33,13.90
2012,07,08,03,34,13.90
2012,07,08,03,35,13.90
2012,07,08,03,36,13.90
2012,07,08,03,37,13.90
2012,07,08,03,38,13.90
2012,07,08,03,39,13.80
2012,07,08,03,40,13.80
2012,07,08,03,41,13.80
2012,07,08,03,42,13.80
2012,07,08,03,43,13.80
2012,07,08,03,44,13.80
2012,07,08,03,45,13.80
2012,07,08,03,46,13.70
2012,07,08,03,47,13.70
2012,07,08,03,48,13.70
2012,07,08,03,49,13.70
2012,07,08,03,50,13.70
2012,07,08,03,51,13.70
2012,07,08,03,52,13.70
2012,07,08,03,53,13.60
2012,07,08,03,54,13.60
2012,07,08,03,55,13.60
2012,07,08,03,56,13.60
2012,07,08,03,57,13.60
2012,07,08,03,58,13.60
2012,07,08,03,59,13.60
2012,07,08,04,00,13.60
2012,07,08,04,01,13.60
2012,07,08,04,02,13.50
2012,07,08,04,03,13.50
2012,07,08,04,04,13.50
2012,07,08,04,05,13.50
2012,07,08,04,06,13.50
2012,07,08,04,07,13.50
2012,07,08,04,08,13.40
2012,07,08,04,09,13.40
2012,07,08,04,10,13.40
2012,07,08,04,11,13.40
2012,07,08,04,12,13.40
2012,07,08,04,13,13.40
2012,07,08,04,14,13.40
2012,07,08,04,15,13.40
2012,07,08,04,16,13.40
2012,07,08,04,17,13.30
2012,07,08,04,18,13.30
2012,07,08,04,19,13.30
2012,07,08,04,20,13.30
2012,07,08,04,21,13.30
2012,07,08,04,22,13.30
2012,07,08,04,23,13.30
2012,07,08,04,24,13.30
2012,07,08,04,25,13.20
2012,07,08,04,26,13.20
2012,07,08,04,27,13.20
2012,07,08,04,28,13.20
2012,07,08,04,29,13.20
2012,07,08,04,30,13.20
2012,07,08,04,31,13.20
2012,07,08,04,32,13.20
2012,07,08,04,33,13.20
2012,07,08,04,34,13.20
2012,07,08,04,35,13.20
2012,07,08,04,36,13.20
2012,07,08,04,37,13.10
2012,07,08,04,38,13.10
2012,07,08,04,39,13.10
2012,07,08,04,40,13.10
2012,07,08,04,41,13.10
2012,07,08,04,42,13.10
2012,07,08,04,43,13.10
2012,07,08,04,44,13.00
2012,07,08,04,45,13.00
2012,07,08,04,46,13.00
2012,07,08,04,47,12.90
2012,07,08,04,48,12.90
2012,07,08,04,49,12.90
2012,07,08,04,50,12.90
2012,07,08,04,51,12.90
2012,07,08,04,52,12.90
2012,07,08,04,53,12.90
2012,07,08,04,54,12.90
2012,07,08,04,55,12.90
2012,07,08,04,56,12.90
2012,07,08,04,57,12.80
2012,07,08,04,58,12.80
2012,07,08,04,59,12.80
2012,07,08,05,00,12.80
2012,07,08,05,01,12.80
2012,07,08,05,02,12.80
2012,07,08,05,03,12.80
2012,07,08,05,04,12.80
2012,07,08,05,05,12.80
2012,07,08,05,06,12.80
2012,07,08,05,07,12.80
2012,07,08,05,08,12.80
2012,07,08,05,09,12.80
2012,07,08,05,10,12.80
2012,07,08,05,11,12.80
2012,07,08,05,12,12.80
2012,07,08,05,13,12.70
2012,07,08,05,14,12.70
2012,07,08,05,15,12.70
2012,07,08,05,16,12.70
2012,07,08,05,17,12.70
2012,07,08,05,18,12.70
2012,07,08,05,19,12.70
2012,07,08,05,20,12.70
2012,07,08,05,21,12.70
2012,07,08,05,22,12.70
2012,07,08,05,23,12.70
2012,07,08,05,24,12.70
2012,07,08,05,25,12.70
2012,07,08,05,26,12.70
2012,07,08,05,27,12.70
2012,07,08,05,28,12.60
2012,07,08,05,29,12.60
2012,07,08,05,30,12.60
2012,07,08,05,31,12.60
2012,07,08,05,32,12.60
2012,07,08,05,33,12.60
2012,07,08,05,34,12.60
2012,07,08,05,35,12.60
2012,07,08,05,36,12.60
2012,07,08,05,37,12.60
2012,07,08,05,38,12.60
2012,07,08,05,39,12.50
2012,07,08,05,40,12.50
2012,07,08,05,41,12.50
2012,07,08,05,42,12.50
2012,07,08,05,43,12.50
2012,07,08,05,44,12.50
2012,07,08,05,45,12.40
2012,07,08,05,46,12.40
2012,07,08,05,47,12.40
2012,07,08,05,48,12.40
2012,07,08,05,49,12.40
2012,07,08,05,50,12.40
2012,07,08,05,51,12.40
2012,07,08,05,52,12.40
2012,07,08,05,53,12.50
2012,07,08,05,54,12.50
2012,07,08,05,55,12.50
2012,07,08,05,56,12.50
2012,07,08,05,57,12.50
2012,07,08,05,58,12.50
2012,07,08,05,59,12.50
2012,07,08,06,00,12.50
2012,07,08,06,01,12.50
2012,07,08,06,02,12.50
2012,07,08,06,03,12.50
2012,07,08,06,04,12.50
2012,07,08,06,05,12.50
2012,07,08,06,06,12.50
2012,07,08,06,07,12.50
2012,07,08,06,08,12.50
2012,07,08,06,09,12.60
2012,07,08,06,10,12.60
2012,07,08,06,11,12.60
2012,07,08,06,12,12.60
2012,07,08,06,13,12.60
2012,07,08,06,14,12.60
2012,07,08,06,15,12.60
2012,07,08,06,16,12.60
2012,07,08,06,17,12.70
2012,07,08,06,18,12.70
2012,07,08,06,19,12.70
2012,07,08,06,20,12.70
2012,07,08,06,21,12.70
2012,07,08,06,22,12.70
2012,07,08,06,23,12.70
2012,07,08,06,24,12.80
2012,07,08,06,25,12.80
2012,07,08,06,26,12.80
2012,07,08,06,27,12.80
2012,07,08,06,28,12.80
2012,07,08,06,29,12.80
2012,07,08,06,30,12.80
2012,07,08,06,31,12.80
2012,07,08,06,32,12.80
2012,07,08,06,33,12.90
2012,07,08,06,34,12.90
2012,07,08,06,35,12.90
2012,07,08,06,36,12.90
2012,07,08,06,37,13.00
2012,07,08,06,38,13.00
2012,07,08,06,39,13.00
2012,07,08,06,40,13.10
2012,07,08,06,41,13.10
2012,07,08,06,42,13.10
2012,07,08,06,43,13.20
2012,07,08,06,44,13.20
2012,07,08,06,45,13.20
2012,07,08,06,46,13.30
2012,07,08,06,47,13.30
2012,07,08,06,48,13.30
2012,07,08,06,49,13.40
2012,07,08,06,50,13.40
2012,07,08,06,51,13.40
2012,07,08,06,52,13.40
2012,07,08,06,53,13.40
2012,07,08,06,54,13.50
2012,07,08,06,55,13.50
2012,07,08,06,56,13.60
2012,07,08,06,57,13.60
2012,07,08,06,58,13.60
2012,07,08,06,59,13.70
2012,07,08,07,00,13.70
2012,07,08,07,01,13.70
2012,07,08,07,02,13.70
2012,07,08,07,03,13.80
2012,07,08,07,04,13.80
2012,07,08,07,05,13.80
2012,07,08,07,06,13.90
2012,07,08,07,07,13.90
2012,07,08,07,08,13.90
2012,07,08,07,09,13.90
2012,07,08,07,10,14.00
2012,07,08,07,11,14.00
2012,07,08,07,12,14.10
2012,07,08,07,13,14.10
2012,07,08,07,14,14.10
2012,07,08,07,15,14.20
2012,07,08,07,16,14.20
2012,07,08,07,17,14.20
2012,07,08,07,18,14.30
2012,07,08,07,19,14.30
2012,07,08,07,20,14.40
2012,07,08,07,21,14.40
2012,07,08,07,22,14.40
2012,07,08,07,23,14.50
2012,07,08,07,24,14.50
2012,07,08,07,25,14.60
2012,07,08,07,26,14.60
2012,07,08,07,27,14.70
2012,07,08,07,28,14.70
2012,07,08,07,29,14.70
2012,07,08,07,30,14.80
2012,07,08,07,31,14.90
2012,07,08,07,32,15.00
2012,07,08,07,33,15.00
2012,07,08,07,34,15.00
2012,07,08,07,35,15.10
2012,07,08,07,36,15.20
2012,07,08,07,37,15.30
2012,07,08,07,38,15.40
2012,07,08,07,39,15.40
2012,07,08,07,40,15.40
2012,07,08,07,41,15.50
2012,07,08,07,42,15.50
2012,07,08,07,43,15.50
2012,07,08,07,44,15.60
2012,07,08,07,45,15.60
2012,07,08,07,46,15.60
2012,07,08,07,47,15.60
2012,07,08,07,48,15.60
2012,07,08,07,49,15.60
2012,07,08,07,50,15.60
2012,07,08,07,51,15.70
2012,07,08,07,52,15.70
2012,07,08,07,53,15.70
2012,07,08,07,54,15.70
2012,07,08,07,55,15.70
2012,07,08,07,56,15.80
2012,07,08,07,57,15.80
2012,07,08,07,58,15.90
2012,07,08,07,59,16.00
2012,07,08,08,00,16.00
2012,07,08,08,01,16.10
2012,07,08,08,02,16.20
2012,07,08,08,03,16.30
2012,07,08,08,04,16.40
2012,07,08,08,05,16.50
2012,07,08,08,06,16.50
2012,07,08,08,07,16.60
2012,07,08,08,08,16.70
2012,07,08,08,09,16.80
2012,07,08,08,10,16.90
2012,07,08,08,11,17.00
2012,07,08,08,12,17.00
2012,07,08,08,13,17.10
2012,07,08,08,14,17.20
2012,07,08,08,15,17.30
2012,07,08,08,16,17.40
2012,07,08,08,17,17.50
2012,07,08,08,18,17.60
2012,07,08,08,19,17.70
2012,07,08,08,20,17.80
2012,07,08,08,21,17.80
2012,07,08,08,22,17.90
2012,07,08,08,23,18.00
2012,07,08,08,24,18.00
2012,07,08,08,25,18.10
2012,07,08,08,26,18.10
2012,07,08,08,27,18.20
2012,07,08,08,28,18.30
2012,07,08,08,29,18.30
2012,07,08,08,30,18.40
2012,07,08,08,31,18.40
2012,07,08,08,32,18.50
2012,07,08,08,33,18.60
2012,07,08,08,34,18.60
2012,07,08,08,35,18.60
2012,07,08,08,36,18.60
2012,07,08,08,37,18.70
2012,07,08,08,38,18.80
2012,07,08,08,39,18.80
2012,07,08,08,40,18.90
2012,07,08,08,41,18.90
2012,07,08,08,42,19.00
2012,07,08,08,43,19.00
2012,07,08,08,44,19.00
2012,07,08,08,45,19.00
2012,07,08,08,46,19.00
2012,07,08,08,47,19.00
2012,07,08,08,48,19.10
2012,07,08,08,49,19.10
2012,07,08,08,50,19.20
2012,07,08,08,51,19.20
2012,07,08,08,52,19.30
2012,07,08,08,53,19.30
2012,07,08,08,54,19.30
2012,07,08,08,55,19.30
2012,07,08,08,56,19.30
2012,07,08,08,57,19.40
2012,07,08,08,58,19.40
2012,07,08,08,59,19.40
2012,07,08,09,00,19.50
2012,07,08,09,01,19.50
2012,07,08,09,02,19.60
2012,07,08,09,03,19.60
2012,07,08,09,04,19.70
2012,07,08,09,05,19.80
2012,07,08,09,06,19.80
2012,07,08,09,07,19.80
2012,07,08,09,08,19.80
2012,07,08,09,09,19.90
2012,07,08,09,10,19.90
2012,07,08,09,11,19.90
2012,07,08,09,12,19.90
2012,07,08,09,13,19.90
2012,07,08,09,14,19.90
2012,07,08,09,15,19.90
2012,07,08,09,16,19.90
2012,07,08,09,17,19.80
2012,07,08,09,18,19.90
2012,07,08,09,19,19.90
2012,07,08,09,20,19.90
2012,07,08,09,21,19.80
2012,07,08,09,22,19.80
2012,07,08,09,23,19.80
2012,07,08,09,24,19.80
2012,07,08,09,25,19.80
2012,07,08,09,26,19.90
2012,07,08,09,27,19.90
2012,07,08,09,28,19.90
2012,07,08,09,29,20.00
2012,07,08,09,30,20.00
2012,07,08,09,31,20.00
2012,07,08,09,32,20.00
2012,07,08,09,33,20.00
2012,07,08,09,34,20.10
2012,07,08,09,35,20.10
2012,07,08,09,36,20.10
2012,07,08,09,37,20.10
2012,07,08,09,38,20.20
2012,07,08,09,39,20.20
2012,07,08,09,40,20.30
2012,07,08,09,41,20.30
2012,07,08,09,42,20.30
2012,07,08,09,43,20.30
2012,07,08,09,44,20.30
2012,07,08,09,45,20.30
2012,07,08,09,46,20.30
2012,07,08,09,47,20.40
2012,07,08,09,48,20.40
2012,07,08,09,49,20.50
2012,07,08,09,50,20.60
2012,07,08,09,51,20.60
2012,07,08,09,52,20.60
2012,07,08,09,53,20.70
2012,07,08,09,54,20.70
2012,07,08,09,55,20.70
2012,07,08,09,56,20.80
2012,07,08,09,57,20.80
2012,07,08,09,58,20.90
2012,07,08,09,59,21.00
2012,07,08,10,00,21.00
2012,07,08,10,01,21.00
2012,07,08,10,02,21.10
2012,07,08,10,03,21.10
2012,07,08,10,04,21.10
2012,07,08,10,05,21.10
2012,07,08,10,06,21.10
2012,07,08,10,07,21.00
2012,07,08,10,08,20.90
2012,07,08,10,09,20.90
2012,07,08,10,10,20.90
2012,07,08,10,11,20.90
2012,07,08,10,12,21.00
2012,07,08,10,13,21.00
2012,07,08,10,14,21.10
2012,07,08,10,15,21.20
2012,07,08,10,16,21.30
2012,07,08,10,17,21.40
2012,07,08,10,18,21.50
2012,07,08,10,19,21.60
2012,07,08,10,20,21.70
2012,07,08,10,21,21.80
2012,07,08,10,22,21.80
2012,07,08,10,23,21.80
2012,07,08,10,24,21.80
2012,07,08,10,25,21.80
2012,07,08,10,26,21.80
2012,07,08,10,27,21.80
2012,07,08,10,28,21.80
2012,07,08,10,29,21.70
2012,07,08,10,30,21.60
2012,07,08,10,31,21.50
2012,07,08,10,32,21.40
2012,07,08,10,33,21.40
2012,07,08,10,34,21.40
2012,07,08,10,35,21.40
2012,07,08,10,36,21.40
2012,07,08,10,37,21.40
2012,07,08,10,38,21.40
2012,07,08,10,39,21.40
2012,07,08,10,40,21.50
2012,07,08,10,41,21.50
2012,07,08,10,42,21.50
2012,07,08,10,43,21.50
2012,07,08,10,44,21.50
2012,07,08,10,45,21.50
2012,07,08,10,46,21.60
2012,07,08,10,47,21.60
2012,07,08,10,48,21.50
2012,07,08,10,49,21.50
2012,07,08,10,50,21.50
2012,07,08,10,51,21.40
2012,07,08,10,52,21.40
2012,07,08,10,53,21.40
2012,07,08,10,54,21.50
2012,07,08,10,55,21.50
2012,07,08,10,56,21.60
2012,07,08,10,57,21.60
2012,07,08,10,58,21.60
2012,07,08,10,59,21.70
2012,07,08,11,00,21.70
2012,07,08,11,01,21.70
2012,07,08,11,02,21.60
2012,07,08,11,03,21.60
2012,07,08,11,04,21.60
2012,07,08,11,05,21.60
2012,07,08,11,06,21.60
2012,07,08,11,07,21.70
2012,07,08,11,08,21.70
2012,07,08,11,09,21.80
2012,07,08,11,10,21.80
2012,07,08,11,11,21.80
2012,07,08,11,12,21.80
2012,07,08,11,13,21.80
2012,07,08,11,14,21.90
2012,07,08,11,15,21.90
2012,07,08,11,16,21.90
2012,07,08,11,17,21.80
2012,07,08,11,18,21.80
2012,07,08,11,19,21.80
2012,07,08,11,20,21.80
2012,07,08,11,21,21.80
2012,07,08,11,22,21.80
2012,07,08,11,23,21.80
2012,07,08,11,24,21.80
2012,07,08,11,25,21.70
2012,07,08,11,26,21.70
2012,07,08,11,27,21.60
2012,07,08,11,28,21.60
2012,07,08,11,29,21.60
2012,07,08,11,30,21.70
2012,07,08,11,31,21.80
2012,07,08,11,32,21.80
2012,07,08,11,33,21.80
2012,07,08,11,34,21.80
2012,07,08,11,35,21.90
2012,07,08,11,36,21.90
2012,07,08,11,37,21.90
2012,07,08,11,38,22.00
2012,07,08,11,39,22.00
2012,07,08,11,40,22.00
2012,07,08,11,41,22.10
2012,07,08,11,42,22.10
2012,07,08,11,43,22.10
2012,07,08,11,44,22.10
2012,07,08,11,45,22.10
2012,07,08,11,46,22.20
2012,07,08,11,47,22.20
2012,07,08,11,48,22.20
2012,07,08,11,49,22.20
2012,07,08,11,50,22.20
2012,07,08,11,51,22.30
2012,07,08,11,52,22.30
2012,07,08,11,53,22.40
2012,07,08,11,54,22.40
2012,07,08,11,55,22.40
2012,07,08,11,56,22.40
2012,07,08,11,57,22.40
2012,07,08,11,58,22.40
2012,07,08,11,59,22.40
2012,07,08,12,00,22.30
2012,07,08,12,01,22.40
2012,07,08,12,02,22.50
2012,07,08,12,03,22.50
2012,07,08,12,04,22.60
2012,07,08,12,05,22.70
2012,07,08,12,06,22.70
2012,07,08,12,07,22.80
2012,07,08,12,08,22.80
2012,07,08,12,09,22.80
2012,07,08,12,10,22.90
2012,07,08,12,11,22.90
2012,07,08,12,12,22.90
2012,07,08,12,13,22.80
2012,07,08,12,14,22.80
2012,07,08,12,15,22.80
2012,07,08,12,16,22.80
2012,07,08,12,17,22.80
2012,07,08,12,18,22.80
2012,07,08,12,19,22.80
2012,07,08,12,20,22.90
2012,07,08,12,21,22.90
2012,07,08,12,22,22.80
2012,07,08,12,23,22.80
2012,07,08,12,24,22.80
2012,07,08,12,25,22.80
2012,07,08,12,26,22.80
2012,07,08,12,27,22.80
2012,07,08,12,28,22.80
2012,07,08,12,29,22.80
2012,07,08,12,30,22.90
2012,07,08,12,31,23.00
2012,07,08,12,32,23.00
2012,07,08,12,33,22.90
2012,07,08,12,34,23.00
2012,07,08,12,35,23.00
2012,07,08,12,36,23.10
2012,07,08,12,37,23.10
2012,07,08,12,38,23.10
2012,07,08,12,39,23.00
2012,07,08,12,40,22.90
2012,07,08,12,41,22.90
2012,07,08,12,42,22.90
2012,07,08,12,43,22.90
2012,07,08,12,44,22.90
2012,07,08,12,45,22.90
2012,07,08,12,46,23.00
2012,07,08,12,47,23.10
2012,07,08,12,48,23.20
2012,07,08,12,49,23.10
2012,07,08,12,50,23.00
2012,07,08,12,51,23.10
2012,07,08,12,52,23.10
2012,07,08,12,53,23.10
2012,07,08,12,54,23.20
2012,07,08,12,55,23.10
2012,07,08,12,56,23.00
2012,07,08,12,57,22.90
2012,07,08,12,58,22.90
2012,07,08,12,59,22.80
2012,07,08,13,00,22.80
2012,07,08,13,01,22.90
2012,07,08,13,02,23.00
2012,07,08,13,03,23.10
2012,07,08,13,04,23.20
2012,07,08,13,05,23.30
2012,07,08,13,06,23.30
2012,07,08,13,07,23.30
2012,07,08,13,08,23.30
2012,07,08,13,09,23.30
2012,07,08,13,10,23.40
2012,07,08,13,11,23.50
2012,07,08,13,12,23.50
2012,07,08,13,13,23.60
2012,07,08,13,14,23.60
2012,07,08,13,15,23.60
2012,07,08,13,16,23.70
2012,07,08,13,17,23.70
2012,07,08,13,18,23.80
2012,07,08,13,19,23.80
2012,07,08,13,20,23.90
2012,07,08,13,21,23.90
2012,07,08,13,22,23.90
2012,07,08,13,23,24.00
2012,07,08,13,24,24.00
2012,07,08,13,25,23.90
2012,07,08,13,26,23.90
2012,07,08,13,27,23.90
2012,07,08,13,28,23.90
2012,07,08,13,29,23.90
2012,07,08,13,30,24.00
2012,07,08,13,31,24.10
2012,07,08,13,32,24.20
2012,07,08,13,33,24.20
2012,07,08,13,34,24.20
2012,07,08,13,35,24.20
2012,07,08,13,36,24.20
2012,07,08,13,37,24.10
2012,07,08,13,38,24.10
2012,07,08,13,39,24.00
2012,07,08,13,40,23.90
2012,07,08,13,41,23.90
2012,07,08,13,42,23.90
2012,07,08,13,43,23.90
2012,07,08,13,44,23.80
2012,07,08,13,45,23.80
2012,07,08,13,46,23.90
2012,07,08,13,47,23.90
2012,07,08,13,48,24.00
2012,07,08,13,49,24.10
2012,07,08,13,50,24.10
2012,07,08,13,51,24.20
2012,07,08,13,52,24.20
2012,07,08,13,53,24.30
2012,07,08,13,54,24.40
2012,07,08,13,55,24.50
2012,07,08,13,56,24.60
2012,07,08,13,57,24.60
2012,07,08,13,58,24.60
2012,07,08,13,59,24.60
2012,07,08,14,00,24.50
2012,07,08,14,01,24.50
2012,07,08,14,02,24.50
2012,07,08,14,03,24.60
2012,07,08,14,04,24.60
2012,07,08,14,05,24.70
2012,07,08,14,06,24.60
2012,07,08,14,07,24.60
2012,07,08,14,08,24.60
2012,07,08,14,09,24.60
2012,07,08,14,10,24.60
2012,07,08,14,11,24.60
2012,07,08,14,12,24.60
2012,07,08,14,13,24.50
2012,07,08,14,14,24.50
2012,07,08,14,15,24.60
2012,07,08,14,16,24.70
2012,07,08,14,17,24.80
2012,07,08,14,18,25.00
2012,07,08,14,19,25.10
2012,07,08,14,20,25.20
2012,07,08,14,21,25.30
2012,07,08,14,22,25.30
2012,07,08,14,23,25.30
2012,07,08,14,24,25.30
2012,07,08,14,25,25.20
2012,07,08,14,26,25.10
2012,07,08,14,27,25.00
2012,07,08,14,28,25.00
2012,07,08,14,29,25.00
2012,07,08,14,30,25.00
2012,07,08,14,31,25.00
2012,07,08,14,32,25.00
2012,07,08,14,33,25.00
2012,07,08,14,34,25.00
2012,07,08,14,35,25.00
2012,07,08,14,36,25.00
2012,07,08,14,37,25.00
2012,07,08,14,38,25.00
2012,07,08,14,39,25.60
2012,07,08,14,40,25.70
2012,07,08,14,41,25.80
2012,07,08,14,42,25.80
2012,07,08,14,43,25.80
2012,07,08,14,44,25.70
2012,07,08,14,45,25.80
2012,07,08,14,46,25.70
2012,07,08,14,47,25.60
2012,07,08,14,48,25.60
2012,07,08,14,49,25.60
2012,07,08,14,50,25.60
2012,07,08,14,51,25.70
2012,07,08,14,52,25.70
2012,07,08,14,53,25.60
2012,07,08,14,54,25.50
2012,07,08,14,55,25.40
2012,07,08,14,56,25.30
2012,07,08,14,57,25.30
2012,07,08,14,58,25.30
2012,07,08,14,59,25.40
2012,07,08,15,00,25.40
2012,07,08,15,01,25.50
2012,07,08,15,02,25.50
2012,07,08,15,03,25.60
2012,07,08,15,04,25.90
2012,07,08,15,05,26.00
2012,07,08,15,06,26.10
2012,07,08,15,07,26.20
2012,07,08,15,08,26.20
2012,07,08,15,09,26.20
2012,07,08,15,10,26.20
2012,07,08,15,11,26.10
2012,07,08,15,12,26.10
2012,07,08,15,13,26.10
2012,07,08,15,14,26.10
2012,07,08,15,15,26.00
2012,07,08,15,16,25.90
2012,07,08,15,17,25.90
2012,07,08,15,18,25.80
2012,07,08,15,19,25.80
2012,07,08,15,20,25.80
2012,07,08,15,21,25.80
2012,07,08,15,22,25.90
2012,07,08,15,23,26.00
2012,07,08,15,24,26.10
2012,07,08,15,25,26.10
2012,07,08,15,26,26.20
2012,07,08,15,27,26.20
2012,07,08,15,28,26.30
2012,07,08,15,29,26.50
2012,07,08,15,30,26.60
2012,07,08,15,31,26.80
2012,07,08,15,32,26.80
2012,07,08,15,33,26.80
2012,07,08,15,34,26.80
2012,07,08,15,35,26.90
2012,07,08,15,36,26.90
2012,07,08,15,37,27.00
2012,07,08,15,38,27.10
2012,07,08,15,39,27.10
2012,07,08,15,40,27.20
2012,07,08,15,41,27.20
2012,07,08,15,42,27.20
2012,07,08,15,43,27.20
2012,07,08,15,44,27.30
2012,07,08,15,45,27.30
2012,07,08,15,46,27.40
2012,07,08,15,47,27.40
2012,07,08,15,48,27.50
2012,07,08,15,49,27.60
2012,07,08,15,50,27.60
2012,07,08,15,51,27.70
2012,07,08,15,52,27.80
2012,07,08,15,53,27.80
2012,07,08,15,54,27.80
2012,07,08,15,55,27.80
2012,07,08,15,56,27.70
2012,07,08,15,57,27.60
2012,07,08,15,58,27.60
2012,07,08,15,59,27.60
2012,07,08,16,00,27.60
2012,07,08,16,01,27.70
2012,07,08,16,02,27.70
2012,07,08,16,03,27.60
2012,07,08,16,04,27.50
2012,07,08,16,05,27.40
2012,07,08,16,06,27.40
2012,07,08,16,07,27.30
2012,07,08,16,08,27.30
2012,07,08,16,09,27.30
2012,07,08,16,10,27.30
2012,07,08,16,11,27.40
2012,07,08,16,12,27.40
2012,07,08,16,13,27.50
2012,07,08,16,14,27.50
2012,07,08,16,15,27.50
2012,07,08,16,16,27.60
2012,07,08,16,17,27.60
2012,07,08,16,18,27.70
2012,07,08,16,19,27.70
2012,07,08,16,20,27.70
2012,07,08,16,21,27.60
2012,07,08,16,22,27.50
2012,07,08,16,23,27.50
2012,07,08,16,24,27.40
2012,07,08,16,25,27.40
2012,07,08,16,26,27.40
2012,07,08,16,27,27.30
2012,07,08,16,28,27.20
2012,07,08,16,29,27.10
2012,07,08,16,30,27.10
2012,07,08,16,31,27.00
2012,07,08,16,32,27.00
2012,07,08,16,33,27.00
2012,07,08,16,34,27.00
2012,07,08,16,35,27.00
2012,07,08,16,36,27.10
2012,07,08,16,37,27.10
2012,07,08,16,38,27.20
2012,07,08,16,39,27.30
2012,07,08,16,40,27.30
2012,07,08,16,41,27.30
2012,07,08,16,42,27.30
2012,07,08,16,43,27.30
2012,07,08,16,44,27.30
2012,07,08,16,45,27.30
2012,07,08,16,46,27.30
2012,07,08,16,47,27.40
2012,07,08,16,48,27.40
2012,07,08,16,49,27.50
2012,07,08,16,50,27.50
2012,07,08,16,51,27.50
2012,07,08,16,52,27.50
2012,07,08,16,53,27.40
2012,07,08,16,54,27.40
2012,07,08,16,55,27.40
2012,07,08,16,56,27.40
2012,07,08,16,57,27.40
2012,07,08,16,58,27.40
2012,07,08,16,59,27.30
2012,07,08,17,00,27.30
2012,07,08,17,01,27.30
2012,07,08,17,02,27.30
2012,07,08,17,03,27.30
2012,07,08,17,04,27.30
2012,07,08,17,05,27.40
2012,07,08,17,06,27.50
2012,07,08,17,07,27.50
2012,07,08,17,08,27.60
2012,07,08,17,09,27.50
2012,07,08,17,10,27.40
2012,07,08,17,11,27.40
2012,07,08,17,12,27.40
2012,07,08,17,13,27.30
2012,07,08,17,14,27.30
2012,07,08,17,15,27.20
2012,07,08,17,16,27.20
2012,07,08,17,17,27.10
2012,07,08,17,18,27.00
2012,07,08,17,19,26.90